Find Starlink 32881

NORAD ID: 62997 Int'l Des: 2025-031 Owner: SPXS Country: US Constellation: starlink operational
LEOCIRCULAR

当前视图

正在加载3D地球...

About Starlink 32881

Starlink 32881 (NORAD 62997) is a starlink constellation satellite (v2 mini) launched Feb 11, 2025 by SPXS of US. It operates in LEO, CIRCULAR orbit with a mass of 730.00 kg.

关于 Starlink 32881

正在加载描述...

即将过境

Passes for default location (London). Set your location on the main map for personalized predictions.

高度历史

Loading altitude history...

两行轨道根数

1 62997U 25031S 26170.60219959 .00013826 00000-0 51088-3 0 9996
2 62997 43.0009 287.5970 0001985 280.1522 79.9105 15.27587496 76684
Epoch: Jun 19, 2026 • Age: 15 hours

当前状态

高度 493.5 km
速度 7.62 km/s
星下点 -39.69°S, 134.42°W
发射日期 Feb 11, 2025
运行时间 1.3 years
类型 internet

技术详情

分类 Payload
质量 730.00 kg
干质量 700.00 kg
总质量 730.00 kg
长度 0.30 m
直径 4.10 m
跨度 29.00 m
形状 Box + pan
制造商 SPXS
平台类型 Starlink V2M
阶段状态 In Orbit
所有者/国家 SPXS/US

Most Searched